| time (UTC) | temp C | wind direction | speed KPH | gust KPH | rain 1hr cm | rain 24hr cm | rain mn cm | humidity % | barometer mb |
| 20260507114610 | 11 | 11 | 0.0 | 0.0 | 0.00 | 0.00 | 0.20 | 95 | 1013.0 |
| 20260507113128 | 11 | 11 | 0.0 | 0.0 | 0.00 | 0.00 | 0.20 | 95 | 1012.9 |
| 20260507111558 | 10 | 11 | 0.0 | 0.0 | 0.00 | 0.00 | 0.20 | 95 | 1012.9 |
| 20260507110052 | 10 | 11 | 0.0 | 0.0 | 0.00 | 0.00 | 0.20 | 95 | 1012.7 |
| 20260507104550 | 10 | 11 | 0.0 | 0.0 | 0.00 | 0.00 | 0.20 | 95 | 1012.6 |
| 20260507103053 | 10 | 11 | 0.0 | 0.0 | 0.00 | 0.00 | 0.20 | 95 | 1012.4 |
| 20260507101548 | 10 | 11 | 0.0 | 0.0 | 0.00 | 0.00 | 0.20 | 95 | 1012.0 |
| 20260507100046 | 10 | 11 | 0.0 | 0.0 | 0.00 | 0.00 | 0.20 | 95 | 1011.9 |
| 20260507094544 | 11 | 11 | 0.0 | 0.0 | 0.00 | 0.00 | 0.20 | 94 | 1012.0 |
| 20260507093045 | 11 | 11 | 0.0 | 0.0 | 0.00 | 0.00 | 0.20 | 94 | 1011.9 |
| 20260507091544 | 11 | 11 | 0.0 | 0.0 | 0.00 | 0.00 | 0.20 | 94 | 1012.1 |
| 20260507090042 | 11 | 11 | 0.0 | 0.0 | 0.00 | 0.00 | 0.20 | 94 | 1012.0 |
| 20260507084545 | 11 | 11 | 0.0 | 0.0 | 0.00 | 0.00 | 0.20 | 94 | 1011.6 |
| 20260507083038 | 11 | 11 | 0.0 | 0.0 | 0.00 | 0.00 | 0.20 | 94 | 1011.5 |
| 20260507081541 | 11 | 11 | 0.0 | 0.0 | 0.00 | 0.00 | 0.20 | 94 | 1011.1 |
| 20260507080042 | 11 | 11 | 0.0 | 0.0 | 0.00 | 0.00 | 0.20 | 93 | 1011.1 |
| 20260507074537 | 11 | 11 | 0.0 | 0.0 | 0.00 | 0.00 | 0.20 | 93 | 1010.9 |
| 20260507073034 | 11 | 10 | 0.0 | 0.0 | 0.00 | 0.00 | 0.20 | 93 | 1010.8 |
| 20260507071531 | 12 | 38 | 0.0 | 0.0 | 0.00 | 0.00 | 0.20 | 93 | 1010.8 |
| 20260507070030 | 12 | 63 | 0.0 | 0.0 | 0.00 | 0.00 | 0.20 | 93 | 1011.0 |
| 20260507064528 | 12 | 63 | 0.0 | 0.0 | 0.00 | 0.00 | 0.18 | 93 | 1011.1 |
| 20260507063028 | 12 | 63 | 0.0 | 0.0 | 0.00 | 0.00 | 0.18 | 93 | 1010.7 |
| 20260507061525 | 12 | 63 | 0.0 | 0.0 | 0.00 | 0.00 | 0.18 | 92 | 1010.8 |
| 20260507060024 | 13 | 63 | 0.0 | 0.0 | 0.00 | 0.00 | 0.18 | 92 | 1011.0 |
| 20260507054522 | 13 | 63 | 0.0 | 0.0 | 0.00 | 0.00 | 0.18 | 92 | 1011.2 |
| 20260507053021 | 13 | 63 | 0.0 | 0.0 | 0.00 | 0.00 | 0.18 | 91 | 1011.4 |
| 20260507051519 | 13 | 63 | 0.0 | 0.0 | 0.00 | 0.00 | 0.18 | 90 | 1011.1 |
| 20260507050024 | 14 | 83 | 0.0 | 0.0 | 0.00 | 0.00 | 0.15 | 88 | 1011.2 |
| 20260507044511 | 15 | 85 | 0.0 | 0.0 | 0.00 | 0.00 | 0.08 | 86 | 1011.5 |
| 20260507043019 | 15 | 85 | 0.0 | 0.0 | 0.00 | 0.00 | 0.00 | 84 | 1010.9 |
| 20260507041506 | 15 | 11 | 0.0 | 0.0 | 0.00 | 0.00 | 0.00 | 83 | 1010.9 |
| 20260507040004 | 16 | 11 | 0.0 | 0.0 | 0.00 | 0.00 | 0.00 | 83 | 1010.4 |
| 20260507034601 | 16 | 11 | 0.0 | 0.0 | 0.00 | 0.00 | 0.38 | 82 | 1010.1 |
| 20260507033100 | 16 | 11 | 0.0 | 0.0 | 0.00 | 0.00 | 0.38 | 82 | 1010.2 |
| 20260507031600 | 16 | 11 | 0.0 | 0.0 | 0.00 | 0.00 | 0.38 | 81 | 1010.2 |
| 20260507030200 | 16 | 11 | 0.0 | 0.0 | 0.00 | 0.00 | 0.38 | 81 | 1010.1 |
| 20260507024559 | 16 | 11 | 0.0 | 0.0 | 0.00 | 0.00 | 0.38 | 82 | 1009.9 |
| 20260507023109 | 17 | 11 | 0.0 | 0.0 | 0.00 | 0.00 | 0.38 | 84 | 1009.9 |
| 20260507021558 | 17 | 9 | 0.0 | 0.0 | 0.00 | 0.00 | 0.38 | 85 | 1009.7 |
| 20260507020104 | 18 | 219 | 0.0 | 0.0 | 0.00 | 0.00 | 0.38 | 86 | 1009.5 |
| 20260507014558 | 18 | 219 | 0.0 | 0.0 | 0.00 | 0.00 | 0.38 | 86 | 1009.1 |
| 20260507013057 | 18 | 219 | 0.0 | 0.0 | 0.00 | 0.00 | 0.38 | 85 | 1009.7 |
| 20260507011556 | 18 | 219 | 0.0 | 0.0 | 0.00 | 0.00 | 0.38 | 86 | 1009.7 |
| 20260507010056 | 19 | 219 | 0.0 | 0.0 | 0.00 | 0.00 | 0.38 | 85 | 1009.8 |
| 20260507004555 | 19 | 219 | 0.0 | 0.0 | 0.00 | 0.00 | 0.38 | 84 | 1009.1 |
| 20260507003111 | 19 | 219 | 0.0 | 0.0 | 0.00 | 0.00 | 0.38 | 84 | 1009.0 |
| 20260507001613 | 20 | 219 | 0.0 | 0.0 | 0.00 | 0.00 | 0.38 | 83 | 1008.9 |
| 20260507000056 | 20 | 219 | 0.0 | 0.0 | 0.00 | 0.00 | 0.38 | 82 | 1008.8 |
| 20260506234555 | 20 | 219 | 0.0 | 0.0 | 0.00 | 0.00 | 0.38 | 82 | 1008.6 |
| 20260506233055 | 20 | 219 | 0.0 | 0.0 | 0.00 | 0.00 | 0.38 | 81 | 1008.5 |
| 20260506231604 | 20 | 219 | 0.0 | 0.0 | 0.00 | 0.00 | 0.38 | 80 | 1008.2 |
| 20260506224552 | 20 | 219 | 0.0 | 0.0 | 0.00 | 0.00 | 0.38 | 80 | 1008.2 |
| 20260506223051 | 20 | 219 | 0.0 | 0.0 | 0.00 | 0.00 | 0.38 | 80 | 1008.1 |
| 20260506221605 | 20 | 219 | 0.0 | 0.0 | 0.00 | 0.00 | 0.38 | 79 | 1008.4 |
| 20260506220051 | 20 | 219 | 1.6 | 0.0 | 0.00 | 0.00 | 0.38 | 78 | 1008.2 |
| 20260506214554 | 20 | 226 | 0.0 | 0.0 | 0.00 | 0.00 | 0.38 | 77 | 1008.3 |
| 20260506213049 | 20 | 225 | 1.6 | 0.0 | 0.00 | 0.00 | 0.38 | 77 | 1007.8 |
| 20260506211549 | 20 | 246 | 1.6 | 0.0 | 0.00 | 0.00 | 0.38 | 77 | 1007.9 |
| 20260506210055 | 20 | 238 | 0.0 | 0.0 | 0.00 | 0.00 | 0.38 | 77 | 1007.7 |
| 20260506204550 | 20 | 239 | 1.6 | 0.0 | 0.00 | 0.00 | 0.38 | 77 | 1007.5 |
| 20260506203049 | 21 | 240 | 1.6 | 0.0 | 0.00 | 0.00 | 0.38 | 76 | 1007.7 |
| 20260506201547 | 21 | 238 | 3.2 | 0.0 | 0.00 | 0.00 | 0.38 | 75 | 1007.5 |
| 20260506200053 | 21 | 288 | 3.2 | 0.0 | 0.00 | 0.00 | 0.38 | 75 | 1007.7 |
| 20260506194544 | 21 | 248 | 3.2 | 0.0 | 0.00 | 0.00 | 0.38 | 76 | 1007.7 |
| 20260506193046 | 20 | 213 | 4.8 | 0.0 | 0.00 | 0.00 | 0.38 | 77 | 1007.7 |
| 20260506191541 | 20 | 275 | 3.2 | 0.0 | 0.00 | 0.00 | 0.38 | 79 | 1007.9 |
| 20260506190040 | 19 | 197 | 0.0 | 0.0 | 0.00 | 0.00 | 0.38 | 82 | 1008.1 |
| 20260506184544 | 18 | 249 | 3.2 | 0.0 | 0.00 | 0.00 | 0.38 | 84 | 1008.4 |
| 20260506183036 | 18 | 199 | 4.8 | 0.0 | 0.00 | 0.00 | 0.38 | 85 | 1008.4 |
| 20260506181541 | 18 | 300 | 1.6 | 0.0 | 0.00 | 0.00 | 0.38 | 86 | 1008.5 |
| 20260506180035 | 17 | 197 | 3.2 | 0.0 | 0.00 | 0.00 | 0.38 | 87 | 1008.6 |
| 20260506174536 | 17 | 221 | 1.6 | 0.0 | 0.00 | 0.00 | 0.38 | 88 | 1008.6 |
| 20260506173033 | 17 | 210 | 1.6 | 0.0 | 0.00 | 0.00 | 0.38 | 90 | 1008.5 |
| 20260506171534 | 17 | 211 | 3.2 | 0.0 | 0.00 | 0.00 | 0.38 | 91 | 1008.8 |
| 20260506170037 | 16 | 219 | 3.2 | 0.0 | 0.00 | 0.00 | 0.38 | 93 | 1008.8 |
| 20260506164544 | 16 | 210 | 3.2 | 0.0 | 0.00 | 0.00 | 0.38 | 93 | 1008.9 |
| 20260506163028 | 16 | 181 | 4.8 | 0.0 | 0.00 | 0.00 | 0.38 | 94 | 1008.9 |
| 20260506161527 | 16 | 193 | 3.2 | 0.0 | 0.00 | 0.00 | 0.38 | 94 | 1009.1 |
| 20260506160030 | 15 | 205 | 4.8 | 0.0 | 0.00 | 0.00 | 0.38 | 94 | 1009.2 |
| 20260506154524 | 15 | 153 | 3.2 | 0.0 | 0.00 | 0.00 | 0.38 | 95 | 1009.2 |
| 20260506153023 | 15 | 213 | 1.6 | 0.0 | 0.00 | 0.00 | 0.36 | 95 | 1009.1 |
| 20260506151522 | 15 | 252 | 3.2 | 0.0 | 0.00 | 0.00 | 0.36 | 94 | 1009.3 |
| 20260506150021 | 15 | 198 | 3.2 | 0.0 | 0.00 | 0.00 | 0.36 | 94 | 1009.8 |
| 20260506144524 | 15 | 209 | 3.2 | 0.0 | 0.00 | 0.00 | 0.36 | 94 | 1010.0 |
| 20260506143019 | 15 | 223 | 1.6 | 0.0 | 0.00 | 0.00 | 0.33 | 93 | 1009.9 |
| 20260506141526 | 15 | 208 | 1.6 | 0.0 | 0.00 | 0.00 | 0.28 | 93 | 1009.9 |
| 20260506140014 | 16 | 234 | 1.6 | 0.0 | 0.00 | 0.00 | 0.20 | 92 | 1009.8 |
| 20260506134511 | 16 | 227 | 1.6 | 0.0 | 0.00 | 0.00 | 0.15 | 91 | 1010.0 |
| 20260506133011 | 16 | 221 | 1.6 | 0.0 | 0.00 | 0.00 | 0.10 | 90 | 1010.5 |
| 20260506131511 | 16 | 209 | 0.0 | 0.0 | 0.00 | 0.00 | 0.10 | 89 | 1010.1 |
| 20260506130008 | 16 | 209 | 1.6 | 0.0 | 0.00 | 0.00 | 0.05 | 87 | 1009.9 |
| 20260506124505 | 16 | 216 | 0.0 | 0.0 | 0.00 | 0.00 | 0.03 | 85 | 1009.7 |
| 20260506123004 | 17 | 217 | 1.6 | 0.0 | 0.00 | 0.00 | 0.00 | 83 | 1009.8 |
| 20260506121601 | 17 | 226 | 1.6 | 0.0 | 0.00 | 0.00 | 0.00 | 81 | 1010.2 |
| 20260506120107 | 17 | 189 | 1.6 | 0.0 | 0.00 | 0.00 | 0.00 | 78 | 1010.3 |